owner,sensor,date,latitude,longitude,vertical_datum,direction_of_sea_water_velocity,sea_water_speed,upward_sea_water_velocity,qcFlag 
TABS,ioos:station:wmo:42049:1,2002-04-01T00:00:00Z,28.3507,-96.0058,2.0,263.5657601,28.37873147,-99999.0,'11111222,11111222,99999999' 
TABS,ioos:station:wmo:42049:1,2002-04-01T00:30:00Z,28.3507,-96.0058,2.0,266.9502994,29.7020538,-99999.0,'11111222,11111222,99999999' 
TABS,ioos:station:wmo:42049:1,2002-04-01T01:00:00Z,28.3507,-96.0058,2.0,272.3962543,31.337393,-99999.0,'11111222,11111222,99999999' 
TABS,ioos:station:wmo:42049:1,2002-04-01T01:30:00Z,28.3507,-96.0058,2.0,279.5896112,30.43525916,-99999.0,'11111222,11111222,99999999' 
TABS,ioos:station:wmo:42049:1,2002-04-01T02:00:00Z,28.3507,-96.0058,2.0,276.9925,31.54459859,-99999.0,'11111222,11111222,99999999' 
TABS,ioos:station:wmo:42049:1,2002-04-01T02:30:00Z,28.3507,-96.0058,2.0,280.4597721,32.50002462,-99999.0,'11111222,11111222,99999999' 
TABS,ioos:station:wmo:42049:1,2002-04-01T03:00:00Z,28.3507,-96.0058,2.0,284.4201308,30.80028896,-99999.0,'11111222,11111222,99999999' 
TABS,ioos:station:wmo:42049:1,2002-04-01T03:30:00Z,28.3507,-96.0058,2.0,290.2729108,32.64200515,-99999.0,'11111222,11111222,99999999' 
TABS,ioos:station:wmo:42049:1,2002-04-01T04:00:00Z,28.3507,-96.0058,2.0,289.4894648,33.69028347,-99999.0,'11111222,11111222,99999999' 
TABS,ioos:station:wmo:42049:1,2002-04-01T04:30:00Z,28.3507,-96.0058,2.0,292.7882661,34.62245659,-99999.0,'11111222,11111222,99999999' 
TABS,ioos:station:wmo:42049:1,2002-04-01T05:00:00Z,28.3507,-96.0058,2.0,296.9566218,36.02389485,-99999.0,'11111222,11111222,99999999' 
TABS,ioos:station:wmo:42049:1,2002-04-01T05:30:00Z,28.3507,-96.0058,2.0,303.9680115,34.91878721,-99999.0,'11111222,11111222,99999999' 
TABS,ioos:station:wmo:42049:1,2002-04-01T06:00:00Z,28.3507,-96.0058,2.0,298.7343132,33.32339719,-99999.0,'11111222,11111222,99999999' 
TABS,ioos:station:wmo:42049:1,2002-04-01T06:30:00Z,28.3507,-96.0058,2.0,291.6638524,32.39835953,-99999.0,'11111222,11111222,99999999' 
TABS,ioos:station:wmo:42049:1,2002-04-01T07:00:00Z,28.3507,-96.0058,2.0,289.1409584,31.84022613,-99999.0,'11111222,11111222,99999999' 
TABS,ioos:station:wmo:42049:1,2002-04-01T07:30:00Z,28.3507,-96.0058,2.0,291.8377281,32.5561131,-99999.0,'11111222,11111222,99999999' 
TABS,ioos:station:wmo:42049:1,2002-04-01T08:00:00Z,28.3507,-96.0058,2.0,287.0847237,29.78428109,-99999.0,'11111222,11111222,99999999' 
TABS,ioos:station:wmo:42049:1,2002-04-01T08:30:00Z,28.3507,-96.0058,2.0,285.7433127,29.15358812,-99999.0,'11111222,11111222,99999999' 
TABS,ioos:station:wmo:42049:1,2002-04-01T09:00:00Z,28.3507,-96.0058,2.0,291.708963,22.92597653,-99999.0,'11111222,11111222,99999999' 
TABS,ioos:station:wmo:42049:1,2002-04-01T09:30:00Z,28.3507,-96.0058,2.0,284.7185386,21.80549701,-99999.0,'11111222,11111222,99999999' 
TABS,ioos:station:wmo:42049:1,2002-04-01T10:00:00Z,28.3507,-96.0058,2.0,285.4790229,22.93173347,-99999.0,'11111222,11111222,99999999' 
TABS,ioos:station:wmo:42049:1,2002-04-01T10:30:00Z,28.3507,-96.0058,2.0,288.3868941,18.70487904,-99999.0,'11111222,11111222,99999999' 
TABS,ioos:station:wmo:42049:1,2002-04-01T11:00:00Z,28.3507,-96.0058,2.0,289.1030778,20.35063881,-99999.0,'11111222,11111222,99999999' 
TABS,ioos:station:wmo:42049:1,2002-04-01T11:30:00Z,28.3507,-96.0058,2.0,285.6983625,19.40373418,-99999.0,'11111222,11111222,99999999' 
TABS,ioos:station:wmo:42049:1,2002-04-01T12:00:00Z,28.3507,-96.0058,2.0,278.5522312,18.82934943,-99999.0,'11111222,11111222,99999999' 
TABS,ioos:station:wmo:42049:1,2002-04-01T12:30:00Z,28.3507,-96.0058,2.0,275.4839985,12.5574679,-99999.0,'11111222,11111222,99999999' 
TABS,ioos:station:wmo:42049:1,2002-04-01T13:00:00Z,28.3507,-96.0058,2.0,261.9382019,15.33150025,-99999.0,'11111222,11111222,99999999' 
TABS,ioos:station:wmo:42049:1,2002-04-01T13:30:00Z,28.3507,-96.0058,2.0,253.0348534,13.43461574,-99999.0,'11111222,11111222,99999999' 
TABS,ioos:station:wmo:42049:1,2002-04-01T14:00:00Z,28.3507,-96.0058,2.0,243.6495454,13.1123949,-99999.0,'11111222,11111222,99999999' 
TABS,ioos:station:wmo:42049:1,2002-04-01T14:30:00Z,28.3507,-96.0058,2.0,245.7966411,11.61058569,-99999.0,'11111222,11111222,99999999' 
TABS,ioos:station:wmo:42049:1,2002-04-01T15:00:00Z,28.3507,-96.0058,2.0,241.0428812,14.7888201,-99999.0,'11111222,11111222,99999999' 
TABS,ioos:station:wmo:42049:1,2002-04-01T15:30:00Z,28.3507,-96.0058,2.0,241.8738687,17.07647797,-99999.0,'11111222,11111222,99999999' 
TABS,ioos:station:wmo:42049:1,2002-04-01T16:00:00Z,28.3507,-96.0058,2.0,233.1365943,16.78600012,-99999.0,'11111222,11111222,99999999' 
TABS,ioos:station:wmo:42049:1,2002-04-01T16:30:00Z,28.3507,-96.0058,2.0,236.1572987,18.78221499,-99999.0,'11111222,11111222,99999999' 
TABS,ioos:station:wmo:42049:1,2002-04-01T17:00:00Z,28.3507,-96.0058,2.0,237.0419666,19.96251738,-99999.0,'11111222,11111222,99999999' 
TABS,ioos:station:wmo:42049:1,2002-04-01T17:30:00Z,28.3507,-96.0058,2.0,234.9839109,23.7364277,-99999.0,'11111222,11111222,99999999' 
TABS,ioos:station:wmo:42049:1,2002-04-01T18:00:00Z,28.3507,-96.0058,2.0,237.0039189,22.20073197,-99999.0,'11111222,11111222,99999999' 
TABS,ioos:station:wmo:42049:1,2002-04-01T18:30:00Z,28.3507,-96.0058,2.0,239.160577,23.64285093,-99999.0,'11111222,11111222,99999999' 
TABS,ioos:station:wmo:42049:1,2002-04-01T19:00:00Z,28.3507,-96.0058,2.0,241.7938388,24.52183109,-99999.0,'11111222,11111222,99999999' 
TABS,ioos:station:wmo:42049:1,2002-04-01T19:30:00Z,28.3507,-96.0058,2.0,244.5871155,24.23493553,-99999.0,'11111222,11111222,99999999' 
TABS,ioos:station:wmo:42049:1,2002-04-01T20:00:00Z,28.3507,-96.0058,2.0,244.5391377,25.9834659,-99999.0,'11111222,11111222,99999999' 
TABS,ioos:station:wmo:42049:1,2002-04-01T20:30:00Z,28.3507,-96.0058,2.0,243.8333932,23.13044747,-99999.0,'11111222,11111222,99999999' 
TABS,ioos:station:wmo:42049:1,2002-04-01T21:00:00Z,28.3507,-96.0058,2.0,245.8458202,26.14937093,-99999.0,'11111222,11111222,99999999' 
TABS,ioos:station:wmo:42049:1,2002-04-01T21:30:00Z,28.3507,-96.0058,2.0,247.5023563,26.60467628,-99999.0,'11111222,11111222,99999999' 
TABS,ioos:station:wmo:42049:1,2002-04-01T22:00:00Z,28.3507,-96.0058,2.0,255.0365699,26.84007824,-99999.0,'11111222,11111222,99999999' 
TABS,ioos:station:wmo:42049:1,2002-04-01T22:30:00Z,28.3507,-96.0058,2.0,255.9475029,26.27631062,-99999.0,'11111222,11111222,99999999' 
TABS,ioos:station:wmo:42049:1,2002-04-01T23:00:00Z,28.3507,-96.0058,2.0,254.8381163,27.91153167,-99999.0,'11111222,11111222,99999999' 
TABS,ioos:station:wmo:42049:1,2002-04-01T23:30:00Z,28.3507,-96.0058,2.0,256.3063587,26.74003179,-99999.0,'11111222,11111222,99999999' 
TABS,ioos:station:wmo:42049:1,2002-04-02T00:00:00Z,28.3507,-96.0058,2.0,248.2501477,26.63615025,-99999.0,'11111222,11111222,99999999' 
TABS,ioos:station:wmo:42049:1,2002-04-02T00:30:00Z,28.3507,-96.0058,2.0,246.5845196,27.10184127,-99999.0,'11111222,11111222,99999999' 
TABS,ioos:station:wmo:42049:1,2002-04-02T01:00:00Z,28.3507,-96.0058,2.0,249.1597996,27.88422493,-99999.0,'11111222,11111222,99999999' 
TABS,ioos:station:wmo:42049:1,2002-04-02T01:30:00Z,28.3507,-96.0058,2.0,246.090452,28.37487621,-99999.0,'11111222,11111222,99999999' 
TABS,ioos:station:wmo:42049:1,2002-04-02T02:00:00Z,28.3507,-96.0058,2.0,245.8723753,28.59835834,-99999.0,'11111222,11111222,99999999' 
TABS,ioos:station:wmo:42049:1,2002-04-02T02:30:00Z,28.3507,-96.0058,2.0,246.8797523,30.58654933,-99999.0,'11111222,11111222,99999999' 
TABS,ioos:station:wmo:42049:1,2002-04-02T03:00:00Z,28.3507,-96.0058,2.0,246.5968318,29.1042557,-99999.0,'11111222,11111222,99999999' 
TABS,ioos:station:wmo:42049:1,2002-04-02T03:30:00Z,28.3507,-96.0058,2.0,249.0627807,31.8745196,-99999.0,'11111222,11111222,99999999' 
TABS,ioos:station:wmo:42049:1,2002-04-02T04:00:00Z,28.3507,-96.0058,2.0,247.9191855,30.88521491,-99999.0,'11111222,11111222,99999999' 
TABS,ioos:station:wmo:42049:1,2002-04-02T04:30:00Z,28.3507,-96.0058,2.0,250.7627649,32.53669928,-99999.0,'11111222,11111222,99999999' 
TABS,ioos:station:wmo:42049:1,2002-04-02T05:00:00Z,28.3507,-96.0058,2.0,246.3538342,31.96358553,-99999.0,'11111222,11111222,99999999' 
TABS,ioos:station:wmo:42049:1,2002-04-02T05:30:00Z,28.3507,-96.0058,2.0,246.8436585,33.54223755,-99999.0,'11111222,11111222,99999999' 
TABS,ioos:station:wmo:42049:1,2002-04-02T06:00:00Z,28.3507,-96.0058,2.0,248.436845,33.44030652,-99999.0,'11111222,11111222,99999999' 
TABS,ioos:station:wmo:42049:1,2002-04-02T06:30:00Z,28.3507,-96.0058,2.0,249.7327245,34.32509432,-99999.0,'11111222,11111222,99999999' 
TABS,ioos:station:wmo:42049:1,2002-04-02T07:00:00Z,28.3507,-96.0058,2.0,251.8550905,34.9372924,-99999.0,'11111222,11111222,99999999' 
TABS,ioos:station:wmo:42049:1,2002-04-02T07:30:00Z,28.3507,-96.0058,2.0,253.291174,35.79109526,-99999.0,'11111222,11111222,99999999' 
TABS,ioos:station:wmo:42049:1,2002-04-02T08:00:00Z,28.3507,-96.0058,2.0,258.7835343,33.5202148,-99999.0,'11111222,11111222,99999999' 
TABS,ioos:station:wmo:42049:1,2002-04-02T08:30:00Z,28.3507,-96.0058,2.0,256.3568493,35.31644518,-99999.0,'11111222,11111222,99999999' 
TABS,ioos:station:wmo:42049:1,2002-04-02T09:00:00Z,28.3507,-96.0058,2.0,252.5646043,32.07354206,-99999.0,'11111222,11111222,99999999' 
TABS,ioos:station:wmo:42049:1,2002-04-02T09:30:00Z,28.3507,-96.0058,2.0,255.4549089,30.06347452,-99999.0,'11111222,11111222,99999999' 
TABS,ioos:station:wmo:42049:1,2002-04-02T10:00:00Z,28.3507,-96.0058,2.0,256.7760181,29.0708187,-99999.0,'11111222,11111222,99999999' 
TABS,ioos:station:wmo:42049:1,2002-04-02T10:30:00Z,28.3507,-96.0058,2.0,256.3515305,27.2082708,-99999.0,'11111222,11111222,99999999' 
TABS,ioos:station:wmo:42049:1,2002-04-02T11:00:00Z,28.3507,-96.0058,2.0,253.2357291,29.71274811,-99999.0,'11111222,11111222,99999999' 
TABS,ioos:station:wmo:42049:1,2002-04-02T11:30:00Z,28.3507,-96.0058,2.0,248.2399785,28.02700483,-99999.0,'11111222,11111222,99999999' 
TABS,ioos:station:wmo:42049:1,2002-04-02T12:00:00Z,28.3507,-96.0058,2.0,248.0492224,27.84882403,-99999.0,'11111222,11111222,99999999' 
TABS,ioos:station:wmo:42049:1,2002-04-02T12:30:00Z,28.3507,-96.0058,2.0,245.8150711,25.410244,-99999.0,'11111222,11111222,99999999' 
TABS,ioos:station:wmo:42049:1,2002-04-02T13:00:00Z,28.3507,-96.0058,2.0,240.931569,24.78138818,-99999.0,'11111222,11111222,99999999' 
TABS,ioos:station:wmo:42049:1,2002-04-02T13:30:00Z,28.3507,-96.0058,2.0,235.2177926,25.909203,-99999.0,'11111222,11111222,99999999' 
TABS,ioos:station:wmo:42049:1,2002-04-02T14:00:00Z,28.3507,-96.0058,2.0,232.1522786,27.31597518,-99999.0,'11111222,11111222,99999999' 
TABS,ioos:station:wmo:42049:1,2002-04-02T14:30:00Z,28.3507,-96.0058,2.0,230.3747834,26.79697184,-99999.0,'11111222,11111222,99999999' 
TABS,ioos:station:wmo:42049:1,2002-04-02T15:00:00Z,28.3507,-96.0058,2.0,228.7058557,29.97330145,-99999.0,'11111222,11111222,99999999' 
TABS,ioos:station:wmo:42049:1,2002-04-02T15:30:00Z,28.3507,-96.0058,2.0,230.0653981,29.06956656,-99999.0,'11111222,11111222,99999999' 
TABS,ioos:station:wmo:42049:1,2002-04-02T16:00:00Z,28.3507,-96.0058,2.0,226.3291839,27.7331228,-99999.0,'11111222,11111222,99999999' 
TABS,ioos:station:wmo:42049:1,2002-04-02T16:30:00Z,28.3507,-96.0058,2.0,220.1208857,31.84325517,-99999.0,'11111222,11111222,99999999' 
TABS,ioos:station:wmo:42049:1,2002-04-02T17:00:00Z,28.3507,-96.0058,2.0,217.0069558,30.8680887,-99999.0,'11111222,11111222,99999999' 
TABS,ioos:station:wmo:42049:1,2002-04-02T17:30:00Z,28.3507,-96.0058,2.0,217.7233116,30.87342709,-99999.0,'11111222,11111222,99999999' 
TABS,ioos:station:wmo:42049:1,2002-04-02T18:00:00Z,28.3507,-96.0058,2.0,213.5729975,32.65804189,-99999.0,'11111222,11111222,99999999' 
TABS,ioos:station:wmo:42049:1,2002-04-02T18:30:00Z,28.3507,-96.0058,2.0,217.9193204,36.02604613,-99999.0,'11111222,11111222,99999999' 
TABS,ioos:station:wmo:42049:1,2002-04-02T19:00:00Z,28.3507,-96.0058,2.0,220.5223394,37.13744472,-99999.0,'11111222,11111222,99999999' 
TABS,ioos:station:wmo:42049:1,2002-04-02T19:30:00Z,28.3507,-96.0058,2.0,219.1658338,34.99209768,-99999.0,'11111222,11111222,99999999' 
TABS,ioos:station:wmo:42049:1,2002-04-02T20:00:00Z,28.3507,-96.0058,2.0,215.7304839,36.21715754,-99999.0,'11111222,11111222,99999999' 
TABS,ioos:station:wmo:42049:1,2002-04-02T20:30:00Z,28.3507,-96.0058,2.0,213.3722955,37.53991209,-99999.0,'11111222,11111222,99999999' 
TABS,ioos:station:wmo:42049:1,2002-04-02T21:00:00Z,28.3507,-96.0058,2.0,218.0916432,38.4487451,-99999.0,'11111222,11111222,99999999' 
TABS,ioos:station:wmo:42049:1,2002-04-02T21:30:00Z,28.3507,-96.0058,2.0,214.6475883,38.32681829,-99999.0,'11111222,11111222,99999999' 
TABS,ioos:station:wmo:42049:1,2002-04-02T22:00:00Z,28.3507,-96.0058,2.0,212.7399577,41.15886296,-99999.0,'11111222,11111222,99999999' 
TABS,ioos:station:wmo:42049:1,2002-04-02T22:30:00Z,28.3507,-96.0058,2.0,211.758635,41.39860022,-99999.0,'11111222,11111222,99999999' 
TABS,ioos:station:wmo:42049:1,2002-04-02T23:00:00Z,28.3507,-96.0058,2.0,208.2663103,42.02082936,-99999.0,'11111222,11111222,99999999' 
TABS,ioos:station:wmo:42049:1,2002-04-02T23:30:00Z,28.3507,-96.0058,2.0,206.6444982,44.99867554,-99999.0,'11111222,11111222,99999999' 
TABS,ioos:station:wmo:42049:1,2002-04-03T00:00:00Z,28.3507,-96.0058,2.0,203.2438037,46.31967185,-99999.0,'11111222,11111222,99999999' 
TABS,ioos:station:wmo:42049:1,2002-04-03T00:30:00Z,28.3507,-96.0058,2.0,204.6452881,45.39529161,-99999.0,'11111222,11111222,99999999' 
TABS,ioos:station:wmo:42049:1,2002-04-03T01:00:00Z,28.3507,-96.0058,2.0,206.8997728,46.65859192,-99999.0,'11111222,11111222,99999999' 
TABS,ioos:station:wmo:42049:1,2002-04-03T01:30:00Z,28.3507,-96.0058,2.0,205.2418931,45.32823513,-99999.0,'11111222,11111222,99999999' 
TABS,ioos:station:wmo:42049:1,2002-04-03T02:00:00Z,28.3507,-96.0058,2.0,207.5176789,46.25275451,-99999.0,'11111222,11111222,99999999' 
TABS,ioos:station:wmo:42049:1,2002-04-03T02:30:00Z,28.3507,-96.0058,2.0,215.1606033,44.19365792,-99999.0,'11111222,11111222,99999999' 
TABS,ioos:station:wmo:42049:1,2002-04-03T03:00:00Z,28.3507,-96.0058,2.0,218.7136314,41.33140452,-99999.0,'11111222,11111222,99999999' 
TABS,ioos:station:wmo:42049:1,2002-04-03T03:30:00Z,28.3507,-96.0058,2.0,235.7789742,38.03464999,-99999.0,'11111222,11111222,99999999' 
TABS,ioos:station:wmo:42049:1,2002-04-03T04:00:00Z,28.3507,-96.0058,2.0,234.6306202,34.36178837,-99999.0,'11111222,11111222,99999999' 
TABS,ioos:station:wmo:42049:1,2002-04-03T04:30:00Z,28.3507,-96.0058,2.0,234.6854769,32.78208352,-99999.0,'11111222,11111222,99999999' 
TABS,ioos:station:wmo:42049:1,2002-04-03T05:00:00Z,28.3507,-96.0058,2.0,243.7758398,29.28406563,-99999.0,'11111222,11111222,99999999' 
TABS,ioos:station:wmo:42049:1,2002-04-03T05:30:00Z,28.3507,-96.0058,2.0,250.6633947,33.37248268,-99999.0,'11111222,11111222,99999999' 
TABS,ioos:station:wmo:42049:1,2002-04-03T06:00:00Z,28.3507,-96.0058,2.0,254.8586307,39.62555993,-99999.0,'11111222,11111222,99999999' 
TABS,ioos:station:wmo:42049:1,2002-04-03T06:30:00Z,28.3507,-96.0058,2.0,250.9130857,38.93015541,-99999.0,'11111222,11111222,99999999' 
TABS,ioos:station:wmo:42049:1,2002-04-03T07:00:00Z,28.3507,-96.0058,2.0,247.4414038,41.47310092,-99999.0,'11111222,11111222,99999999' 
TABS,ioos:station:wmo:42049:1,2002-04-03T07:30:00Z,28.3507,-96.0058,2.0,244.6624239,42.57556576,-99999.0,'11111222,11111222,99999999' 
TABS,ioos:station:wmo:42049:1,2002-04-03T08:00:00Z,28.3507,-96.0058,2.0,244.5825896,45.7591357,-99999.0,'11111222,11111222,99999999' 
TABS,ioos:station:wmo:42049:1,2002-04-03T08:30:00Z,28.3507,-96.0058,2.0,247.0892276,44.90211576,-99999.0,'11111222,11111222,99999999' 
TABS,ioos:station:wmo:42049:1,2002-04-03T09:00:00Z,28.3507,-96.0058,2.0,237.5781285,42.46993525,-99999.0,'11111222,11111222,99999999' 
TABS,ioos:station:wmo:42049:1,2002-04-03T09:30:00Z,28.3507,-96.0058,2.0,235.0953556,42.27487433,-99999.0,'11111222,11111222,99999999' 
TABS,ioos:station:wmo:42049:1,2002-04-03T10:00:00Z,28.3507,-96.0058,2.0,227.9309677,40.23752602,-99999.0,'11111222,11111222,99999999' 
TABS,ioos:station:wmo:42049:1,2002-04-03T10:30:00Z,28.3507,-96.0058,2.0,218.084518,46.22039052,-99999.0,'11111222,11111222,99999999' 
TABS,ioos:station:wmo:42049:1,2002-04-03T11:00:00Z,28.3507,-96.0058,2.0,212.7792798,45.03070064,-99999.0,'11111222,11111222,99999999' 
TABS,ioos:station:wmo:42049:1,2002-04-03T11:30:00Z,28.3507,-96.0058,2.0,205.3915704,42.37342681,-99999.0,'11111222,11111222,99999999' 
TABS,ioos:station:wmo:42049:1,2002-04-03T12:00:00Z,28.3507,-96.0058,2.0,205.5800631,55.1674723,-99999.0,'11111222,11111222,99999999' 
TABS,ioos:station:wmo:42049:1,2002-04-03T12:30:00Z,28.3507,-96.0058,2.0,200.8594247,53.66763084,-99999.0,'11111222,11111222,99999999' 
TABS,ioos:station:wmo:42049:1,2002-04-03T13:00:00Z,28.3507,-96.0058,2.0,199.0779066,61.12751672,-99999.0,'11111222,11111222,99999999' 
TABS,ioos:station:wmo:42049:1,2002-04-03T13:30:00Z,28.3507,-96.0058,2.0,195.1617314,58.26830356,-99999.0,'11111222,11111222,99999999' 
TABS,ioos:station:wmo:42049:1,2002-04-03T14:00:00Z,28.3507,-96.0058,2.0,197.3923028,51.45244795,-99999.0,'11111222,11111222,99999999' 
TABS,ioos:station:wmo:42049:1,2002-04-03T14:30:00Z,28.3507,-96.0058,2.0,218.819114,54.38147663,-99999.0,'11111222,11111222,99999999' 
TABS,ioos:station:wmo:42049:1,2002-04-03T15:00:00Z,28.3507,-96.0058,2.0,224.1437003,54.43208337,-99999.0,'11111222,11111222,99999999' 
TABS,ioos:station:wmo:42049:1,2002-04-03T15:30:00Z,28.3507,-96.0058,2.0,224.1667675,49.61585432,-99999.0,'11111222,11111222,99999999' 
TABS,ioos:station:wmo:42049:1,2002-04-03T16:00:00Z,28.3507,-96.0058,2.0,223.0714418,46.65303849,-99999.0,'11111222,11111222,99999999' 
TABS,ioos:station:wmo:42049:1,2002-04-03T16:30:00Z,28.3507,-96.0058,2.0,221.3866702,49.59605025,-99999.0,'11111222,11111222,99999999' 
TABS,ioos:station:wmo:42049:1,2002-04-03T17:00:00Z,28.3507,-96.0058,2.0,235.4431138,84.18260747,-99999.0,'11111222,11111222,99999999' 
TABS,ioos:station:wmo:42049:1,2002-04-03T17:30:00Z,28.3507,-96.0058,2.0,240.6069986,86.75773453,-99999.0,'11111222,11111222,99999999' 
TABS,ioos:station:wmo:42049:1,2002-04-03T18:00:00Z,28.3507,-96.0058,2.0,244.9309036,98.81870774,-99999.0,'11111222,11111222,99999999' 
TABS,ioos:station:wmo:42049:1,2002-04-03T18:30:00Z,28.3507,-96.0058,2.0,249.7262653,100.3464489,-99999.0,'11111222,11111222,99999999' 
TABS,ioos:station:wmo:42049:1,2002-04-03T19:00:00Z,28.3507,-96.0058,2.0,251.990084,101.3664422,-99999.0,'11111222,11111222,99999999' 
TABS,ioos:station:wmo:42049:1,2002-04-03T19:30:00Z,28.3507,-96.0058,2.0,253.2736893,98.71646114,-99999.0,'11111222,11111222,99999999' 
TABS,ioos:station:wmo:42049:1,2002-04-03T20:00:00Z,28.3507,-96.0058,2.0,251.8221236,93.60120138,-99999.0,'11111222,11111222,99999999' 
TABS,ioos:station:wmo:42049:1,2002-04-03T20:30:00Z,28.3507,-96.0058,2.0,251.2971815,94.15151884,-99999.0,'11111222,11111222,99999999' 
TABS,ioos:station:wmo:42049:1,2002-04-03T21:00:00Z,28.3507,-96.0058,2.0,253.145207,95.84715437,-99999.0,'11111222,11111222,99999999' 
TABS,ioos:station:wmo:42049:1,2002-04-03T21:30:00Z,28.3507,-96.0058,2.0,256.9374374,93.44792828,-99999.0,'11111222,11111222,99999999' 
TABS,ioos:station:wmo:42049:1,2002-04-03T22:00:00Z,28.3507,-96.0058,2.0,261.2288018,93.71589246,-99999.0,'11111222,11111222,99999999' 
TABS,ioos:station:wmo:42049:1,2002-04-03T22:30:00Z,28.3507,-96.0058,2.0,263.5155629,94.57496127,-99999.0,'11111222,11111222,99999999' 
TABS,ioos:station:wmo:42049:1,2002-04-03T23:00:00Z,28.3507,-96.0058,2.0,265.8242718,91.47277464,-99999.0,'11111222,11111222,99999999' 
TABS,ioos:station:wmo:42049:1,2002-04-03T23:30:00Z,28.3507,-96.0058,2.0,270.4133199,87.42227005,-99999.0,'11111222,11111222,99999999' 
TABS,ioos:station:wmo:42049:1,2002-04-04T00:00:00Z,28.3507,-96.0058,2.0,272.701975,86.98667772,-99999.0,'11111222,11111222,99999999' 
TABS,ioos:station:wmo:42049:1,2002-04-04T00:30:00Z,28.3507,-96.0058,2.0,275.2265818,84.97324285,-99999.0,'11111222,11111222,99999999' 
TABS,ioos:station:wmo:42049:1,2002-04-04T01:00:00Z,28.3507,-96.0058,2.0,277.8174596,82.05248138,-99999.0,'11111222,11111222,99999999' 
TABS,ioos:station:wmo:42049:1,2002-04-04T01:30:00Z,28.3507,-96.0058,2.0,276.8786134,80.9123291,-99999.0,'11111222,11111222,99999999' 
TABS,ioos:station:wmo:42049:1,2002-04-04T02:00:00Z,28.3507,-96.0058,2.0,277.1710019,81.07408957,-99999.0,'11111222,11111222,99999999' 
TABS,ioos:station:wmo:42049:1,2002-04-04T02:30:00Z,28.3507,-96.0058,2.0,274.6517478,75.83976925,-99999.0,'11111222,11111222,99999999' 
TABS,ioos:station:wmo:42049:1,2002-04-04T03:00:00Z,28.3507,-96.0058,2.0,272.9244918,69.59060641,-99999.0,'11111222,11111222,99999999' 
TABS,ioos:station:wmo:42049:1,2002-04-04T03:30:00Z,28.3507,-96.0058,2.0,274.6279493,68.17222675,-99999.0,'11111222,11111222,99999999' 
TABS,ioos:station:wmo:42049:1,2002-04-04T04:00:00Z,28.3507,-96.0058,2.0,278.4063692,66.96944527,-99999.0,'11111222,11111222,99999999' 
TABS,ioos:station:wmo:42049:1,2002-04-04T04:30:00Z,28.3507,-96.0058,2.0,274.2422476,66.11109589,-99999.0,'11111222,11111222,99999999' 
TABS,ioos:station:wmo:42049:1,2002-04-04T05:00:00Z,28.3507,-96.0058,2.0,271.6010279,65.51556304,-99999.0,'11111222,11111222,99999999' 
TABS,ioos:station:wmo:42049:1,2002-04-04T05:30:00Z,28.3507,-96.0058,2.0,271.1110898,67.58269749,-99999.0,'11111222,11111222,99999999' 
TABS,ioos:station:wmo:42049:1,2002-04-04T06:00:00Z,28.3507,-96.0058,2.0,267.1468795,64.90042604,-99999.0,'11111222,11111222,99999999' 
TABS,ioos:station:wmo:42049:1,2002-04-04T06:30:00Z,28.3507,-96.0058,2.0,262.310878,62.78445986,-99999.0,'11111222,11111222,99999999' 
TABS,ioos:station:wmo:42049:1,2002-04-04T07:00:00Z,28.3507,-96.0058,2.0,259.5621281,57.95903726,-99999.0,'11111222,11111222,99999999' 
TABS,ioos:station:wmo:42049:1,2002-04-04T07:30:00Z,28.3507,-96.0058,2.0,257.5027709,62.20373381,-99999.0,'11111222,11111222,99999999' 
TABS,ioos:station:wmo:42049:1,2002-04-04T08:00:00Z,28.3507,-96.0058,2.0,252.5936825,60.57371047,-99999.0,'11111222,11111222,99999999' 
TABS,ioos:station:wmo:42049:1,2002-04-04T08:30:00Z,28.3507,-96.0058,2.0,245.8122131,64.14092687,-99999.0,'11111222,11111222,99999999' 
TABS,ioos:station:wmo:42049:1,2002-04-04T09:00:00Z,28.3507,-96.0058,2.0,244.1008357,63.07479766,-99999.0,'11111222,11111222,99999999' 
TABS,ioos:station:wmo:42049:1,2002-04-04T09:30:00Z,28.3507,-96.0058,2.0,240.0159876,66.07263654,-99999.0,'11111222,11111222,99999999' 
TABS,ioos:station:wmo:42049:1,2002-04-04T10:00:00Z,28.3507,-96.0058,2.0,240.0562844,69.81957104,-99999.0,'11111222,11111222,99999999' 
TABS,ioos:station:wmo:42049:1,2002-04-04T10:30:00Z,28.3507,-96.0058,2.0,236.8292893,72.46901476,-99999.0,'11111222,11111222,99999999' 
TABS,ioos:station:wmo:42049:1,2002-04-04T11:00:00Z,28.3507,-96.0058,2.0,235.3362143,73.14222857,-99999.0,'11111222,11111222,99999999' 
TABS,ioos:station:wmo:42049:1,2002-04-04T11:30:00Z,28.3507,-96.0058,2.0,229.1797102,76.73428504,-99999.0,'11111222,11111222,99999999' 
TABS,ioos:station:wmo:42049:1,2002-04-04T12:00:00Z,28.3507,-96.0058,2.0,221.5745016,78.58680933,-99999.0,'11111222,11111222,99999999' 
TABS,ioos:station:wmo:42049:1,2002-04-04T12:30:00Z,28.3507,-96.0058,2.0,230.3841958,66.76263775,-99999.0,'11111222,11111222,99999999' 
TABS,ioos:station:wmo:42049:1,2002-04-04T13:00:00Z,28.3507,-96.0058,2.0,232.5952052,59.80860306,-99999.0,'11111222,11111222,99999999' 
TABS,ioos:station:wmo:42049:1,2002-04-04T13:30:00Z,28.3507,-96.0058,2.0,244.0013032,55.16202317,-99999.0,'11111222,11111222,99999999' 
TABS,ioos:station:wmo:42049:1,2002-04-04T14:00:00Z,28.3507,-96.0058,2.0,240.0836287,57.30554336,-99999.0,'11111222,11111222,99999999' 
TABS,ioos:station:wmo:42049:1,2002-04-04T14:30:00Z,28.3507,-96.0058,2.0,242.6468029,59.19878715,-99999.0,'11111222,11111222,99999999' 
TABS,ioos:station:wmo:42049:1,2002-04-04T15:00:00Z,28.3507,-96.0058,2.0,250.1836424,70.58989304,-99999.0,'11111222,11111222,99999999' 
TABS,ioos:station:wmo:42049:1,2002-04-04T16:00:00Z,28.3507,-96.0058,2.0,255.442801,79.01651726,-99999.0,'11111222,11111222,99999999' 
TABS,ioos:station:wmo:42049:1,2002-04-04T16:30:00Z,28.3507,-96.0058,2.0,254.2500832,77.55148032,-99999.0,'11111222,11111222,99999999' 